Regional Weather Roundup
Issued by NWS

Home | Current Version | Previous Version | Text Only | Print | Product List | Glossary On
Versions: 1 2 3 4 5 6 7 8 9 10 11 12 13 14 15 16 17 18 19 20 21 22 23 24 25 26 27 28 29 30 31 32 33 34 35 36 37 38 39 40 41 42 43 44 45 46 47 48
000
ASUS43 KDMX 050907
RWRIA

WEATHER ROUNDUP FOR IOWA
NATIONAL WEATHER SERVICE DES MOINES IA
400 AM CDT SUN JUL 05 2015

NOTE: "FAIR" INDICATES FEW OR NO CLOUDS BELOW 12,000 FEET WITH NO
SIGNIFICANT WEATHER AND/OR OBSTRUCTIONS TO VISIBILITY.

* - THESE STATIONS ARE NOT NWS STATIONS...THUS NOT UNDER NWS
QUALITY CONTROL.  THEY ALSO DO NOT REPORT WEATHER SUCH
AS PRECIPITATION OR FOG.

IAZ001>003-012>014-020>022-031>034-043>046-051000-
   NORTHWEST IOWA

CITY           SKY/WX    TMP DP  RH WIND       PRES   REMARKS
CARROLL *      CLOUDY    61  61 100 S7        29.95F
CHEROKEE *     MOCLDY    64  61  88 S5        29.91F
DENISON *      PTCLDY    66  61  82 S9        29.92S
LE MARS *        N/A     68  63  83 S9        29.89F
ORANGE CITY *  CLEAR     64  61  88 S8        29.88F
SHELDON *      CLEAR     66  66 100 S13       29.87F
SIOUX CITY     PTCLDY    68  61  78 SE9       29.89F
SPENCER        MOCLDY    63  58  83 S9        29.91F
STORM LAKE *   CLEAR     61  59  94 S9        29.93F
$$

IAZ055>058-069>071-079>083-090>094-051000-
   SOUTHWEST IOWA

CITY           SKY/WX    TMP DP  RH WIND       PRES   REMARKS
ATLANTIC *     PTCLDY    66  63  88 S7        29.95F
AUDUBON *      CLEAR     61  57  88 CALM      29.96F
CLARINDA *     CLEAR     63  63 100 CALM      29.98F
COUNCIL BLFS *   N/A     64  63  94 SE8       29.95R
CRESTON *      CLEAR     64  61  88 S7        29.99S
HARLAN  *      CLEAR     64  64 100 S3        29.98F
LAMONI         CLEAR     66  62  87 S5        29.99F
RED OAK *      CLEAR     64  63  94 S3        29.95F
SHENANDOAH *   CLEAR     66  63  88 CALM      29.96S
$$

IAZ047>049-059>061-072>074-084-051000-
   CENTRAL IOWA

CITY           SKY/WX    TMP DP  RH WIND       PRES   REMARKS
AMES           CLEAR     60  59  96 SE8       29.98S
ANKENY *       CLEAR     63  63 100 CALM      29.99S
CHARITON *     CLOUDY    63  61  94 SE6       30.00F
DES MOINES     CLEAR     65  59  81 SE7       29.99S
GRINNELL*      CLEAR     63  61  94 S6        30.02S
KNOXVILLE *    CLEAR     63  59  88 SE5       29.99S
MARSHALLTOWN   CLEAR     62  59  90 SE7       30.00S
PELLA *        CLEAR     63  63 100 SE3       30.02S
PERRY *          N/A     61  59  94 SE3       29.97F
$$

IAZ004>006-015-016-023>025-035-036-051000-
   NORTH CENTRAL IOWA

CITY           SKY/WX    TMP DP  RH WIND       PRES   REMARKS
ALGONA *       CLEAR     64  59  82 S12       29.94F
CLARION *      CLEAR     63  59  88 S10       29.96F
ESTHERVILLE    PTCLDY    61  59  93 S8        29.92F
FORT DODGE *   CLEAR     64  57  77 S7        29.96F
MASON CITY     CLEAR     59  57  93 S8        29.98F
FOREST CITY *  CLEAR     57  57 100 SE7       29.96F
IOWA FALLS *     N/A     61  59  94 SE6       30.00S
$$

IAZ007>011-017>019-026>030-037>042-050>054-066-051000-
   NORTHEAST IOWA

CITY           SKY/WX    TMP DP  RH WIND       PRES   REMARKS
CEDAR RAPIDS   CLEAR     63  61  93 S6        30.01F
CHARLES CITY * CLEAR     61  61 100 S7        30.00S
CLINTON *      CLEAR     59  55  88 SE3       30.07S
DECORAH *        N/A    N/A N/A N/A MISG        N/A
DUBUQUE        CLEAR     60  57  89 S5        30.03F
MONTICELLO *   CLEAR     59  59 100 CALM      30.02F
OELWEIN *      CLEAR     61  59  94 S6        30.02S
WATERLOO       CLEAR     64  60  87 S8        30.00R
$$

IAZ064-065-067-068-078-051000-
   EAST CENTRAL IOWA

CITY           SKY/WX    TMP DP  RH WIND       PRES   REMARKS
DAVENPORT      CLEAR     61  58  90 S5        30.04F FOG
IOWA CITY      CLEAR     62  60  93 CALM      30.03F
MT. PLEASANT * CLEAR     64  61  88 SE5       30.02F FOG
MUSCATINE *    CLEAR     61  59  94 CALM      30.03F
QUAD CITIES    CLEAR     64  59  83 CALM      30.03F
$$

IAZ062-063-075>077-085>089-095>099-051000-
   SOUTHEAST IOWA

CITY           SKY/WX    TMP DP  RH WIND       PRES   REMARKS
BURLINGTON     CLEAR     64  63  96 S3        30.03F
FAIRFIELD *    CLEAR     64  61  88 S5        30.02F
FORT MADISON * CLEAR     64  63  94 S6        30.04F
KEOKUK *       PTCLDY    66  64  94 S5        30.02F
OSKALOOSA *      N/A     61  59  94 CALM      30.01F FOG
CENTERVILLE *  CLEAR     63  61  94 SE5       30.02F
OTTUMWA        CLEAR     64  62  93 S7        30.00F
WASHINGTON *   CLEAR     61  61 100 S6        30.03F FOG
$$

ABBREVIATIONS USED IN REMARKS
   TC - TEMPERATURES IN CELSIUS
  WCI - WIND CHILL INDEX
   HX - HEAT INDEX
  VSB - VISIBILITY
$$



USA.gov is the U.S. government's official web portal to all federal, state and local government web resources and services.